Hyannis, MA

4:43 PM EDT on May 29, 2017 (GMT -0400)
Barnstable Municipal-Boardman-Polando Field

Weather History for KHYA - February, 2009

Change the Weather History Date:

Monday, February 2, 2009

  Actual Average Record
Temperature  
Mean Temperature 39 °F -  
Max Temperature 52 °F 39 °F 60 °F (1982)
Min Temperature 26 °F 21 °F -5 °F (1961)
Degree Days  
Heating Degree Days 26    
Moisture  
Dew Point 29 °F    
Average Humidity 85    
Maximum Humidity 100    
Minimum Humidity 53    
Precipitation  
Precipitation 0.00 in - - ()
Sea Level Pressure  
Sea Level Pressure 29.95 in    
Wind  
Wind Speed 2 mph (North)    
Max Wind Speed 13 mph    
Max Gust Speed -    
Visibility 4 miles    
Events Fog    
Averages and records for this station are not official NWS values.
T = Trace of Precipitation, MM = Missing Value Source: NWS Daily Summary

Daily Weather History Graph

Daily Weather History Graph

Search for Another Location

Airport or City:

Trip Planner

Search our weather history database for the weather conditions in past years. The results will help you decide how hot, cold, wet, or windy it might be!

Date:

Astronomy

Feb. 02, 2009 Rise Set
Actual Time 6:51 AM EST 4:58 PM EST
Civil Twilight 6:22 AM EST 5:27 PM EST
Nautical Twilight 5:49 AM EST 6:00 PM EST
Astronomical Twilight 5:16 AM EST 6:33 PM EST
Moon 9:57 AM EST (2/2) No Moon Set
Length of Visible Light 11h 05m
Length of Day
10h 06m
Waxing Crescent, 47% of the Moon is Illuminated
Feb 2
Waxing Crescent
Feb 2
First Quarter
Feb 9
Full
Feb 16
Last Quarter
Feb 24
New

Hourly Weather History & Observations

Time (EST) Temp. Windchill Dew Point Humidity Pressure Visibility Wind Dir Wind Speed Gust Speed Precip Events Conditions
12:18 AM 30.2 °F - 26.6 °F 86% 29.99 in 2.5 mi Calm Calm - N/A   Clear
12:26 AM 30.2 °F - 26.6 °F 86% 29.99 in 4.0 mi Calm Calm - N/A   Clear
12:56 AM 28.0 °F - 25.0 °F 88% 29.99 in 6.0 mi Calm Calm - N/A   Clear
1:24 AM 28.4 °F - 24.8 °F 86% 29.98 in 2.5 mi Calm Calm - N/A   Clear
1:31 AM 28.4 °F - 24.8 °F 86% 29.98 in 4.0 mi Calm Calm - N/A   Clear
2:35 AM 33.8 °F - 30.2 °F 87% 29.98 in 2.5 mi Calm Calm - N/A   Clear
2:42 AM 32.0 °F - 30.2 °F 93% 29.98 in 1.2 mi Calm Calm - N/A   Partly Cloudy
2:51 AM 30.2 °F - 30.2 °F 100% 29.97 in 0.8 mi Calm Calm - N/A   Mist
2:52 AM 30.9 °F - 28.9 °F 92% 29.97 in 0.8 mi Calm Calm - N/A   Mist
3:34 AM 28.4 °F - 26.6 °F 93% 29.96 in 2.0 mi Calm Calm - N/A   Overcast
3:44 AM 28.4 °F - 26.6 °F 93% 29.96 in 0.8 mi Calm Calm - N/A   Mist
3:56 AM 28.9 °F - 26.1 °F 89% 29.96 in 0.2 mi Calm Calm - N/A Fog Light Freezing Fog
4:03 AM 28.4 °F - 26.6 °F 93% 29.96 in 0.8 mi Calm Calm - N/A   Mist
4:29 AM 28.4 °F - 24.8 °F 86% 29.95 in 0.2 mi Calm Calm - N/A Fog Light Freezing Fog
4:56 AM 28.0 °F - 26.1 °F 92% 29.96 in 0.5 mi Calm Calm - N/A Fog Light Freezing Fog
5:21 AM 28.4 °F - 26.6 °F 93% 29.94 in 0.2 mi Calm Calm - N/A Fog Light Freezing Fog
5:56 AM 28.0 °F - 26.1 °F 92% 29.95 in 0.2 mi Calm Calm - N/A Fog Light Freezing Fog
6:15 AM 26.6 °F - 24.8 °F 93% 29.94 in 0.8 mi Calm Calm - N/A   Overcast
6:56 AM 28.9 °F - 26.1 °F 89% 29.95 in 1.0 mi Calm Calm - N/A   Clear
7:35 AM 33.8 °F 30.8 °F 33.8 °F 100% 29.94 in 3.0 mi SSW 3.5 mph - N/A   Clear
7:56 AM 37.0 °F - 35.1 °F 93% 29.94 in 3.0 mi Calm Calm - N/A   Clear
8:56 AM 42.1 °F 38.4 °F 39.0 °F 89% 29.95 in 3.0 mi SW 5.8 mph - N/A   Clear
12:56 PM 50.0 °F - 37.0 °F 61% 29.91 in 10.0 mi WSW 11.5 mph - N/A   Clear
1:56 PM 52.0 °F - 35.1 °F 53% 29.89 in 10.0 mi SW 12.7 mph - N/A   Clear
3:56 PM 45.0 °F 41.8 °F 36.0 °F 71% 29.89 in 10.0 mi SSW 5.8 mph - N/A   Clear
4:56 PM 41.0 °F 39.0 °F 32.0 °F 70% 29.94 in 10.0 mi North 3.5 mph - N/A   Clear
5:56 PM 37.9 °F 34.4 °F 30.9 °F 76% 29.95 in 10.0 mi NNE 4.6 mph - N/A   Clear
6:56 PM 34.0 °F - 30.0 °F 85% 29.95 in 10.0 mi Calm Calm - N/A   Clear
7:56 PM 37.0 °F 31.6 °F 30.9 °F 79% 29.93 in 10.0 mi NNE 6.9 mph - N/A   Clear
8:56 PM 37.0 °F 31.0 °F 32.0 °F 82% 29.95 in 10.0 mi NNE 8.1 mph - N/A   Clear
9:56 PM 37.0 °F 31.0 °F 30.0 °F 76% 29.95 in 10.0 mi NNE 8.1 mph - N/A   Clear
10:56 PM 37.9 °F 32.1 °F 30.9 °F 76% 29.92 in 10.0 mi NE 8.1 mph - N/A   Clear
11:56 PM 37.9 °F 30.9 °F 32.0 °F 79% 29.92 in 10.0 mi NNE 10.4 mph - N/A   Scattered Clouds